Date String (YYYY-MM-DD hh:mm:ss) UTC,Instrument flags,Ambient pressure (hPa),Sample flow (lpm),Bypass flow (lpm),Sample temperature (°C),Ambient temperature (°C),ASC tube jacket temperature (°C),LED temperature (°C),Box temperature (°C),Sample RH (%),Span deviation,Mass concentration (μg/m³),Mass concentration (μg/m³),Mass concentration (μg/m³)
DateTimeUTC,F1_M11,P_M11,Q1_M11,Q2_M11,T1_M11,T2_M11,T3_M11,T4_M11,T5_M11,U1_M11,ZSPAN_M11,X0_M11,X2_M11,X1_M11
2022-09-12 09:00:00,,0829.6,5.01,0.00,28.3,26.6,00.0,37.2,30.0,12.3,0001.5,0010.53,0007.07,0006.70
2022-09-12 09:01:00,,0829.6,5.00,0.00,28.3,26.7,00.0,37.2,30.0,12.1,0000.9,0010.44,0006.98,0006.61
2022-09-12 09:02:00,,0829.6,4.99,0.00,28.3,26.7,00.0,37.2,30.0,12.0,0000.9,0010.40,0006.90,0006.54
2022-09-12 09:03:00,,0829.6,5.01,0.00,28.3,26.7,00.0,37.1,30.0,12.0,0000.6,0010.54,0006.83,0006.48
2022-09-12 09:04:00,,0829.6,5.01,0.00,28.3,26.7,00.0,37.1,30.0,12.8,0001.1,0010.41,0006.76,0006.43
2022-09-12 09:05:00,,0829.6,5.00,0.00,28.2,26.7,00.0,37.1,30.0,12.9,0001.0,0010.69,0006.71,0006.38
2022-09-12 09:06:00,,0829.6,4.99,0.00,28.2,26.6,00.0,37.1,30.0,12.5,0001.0,0010.82,0006.64,0006.33
2022-09-12 09:07:00,,0829.6,5.01,0.00,28.2,26.6,00.0,37.1,30.0,12.8,0001.1,0010.59,0006.57,0006.26
2022-09-12 09:08:00,,0829.6,5.00,0.00,28.2,26.6,00.0,37.1,29.9,12.5,0000.7,0010.53,0006.54,0006.24
2022-09-12 09:09:00,,0829.6,4.98,0.00,28.2,26.7,00.0,37.1,29.9,12.4,0000.5,0010.53,0006.50,0006.22
2022-09-12 09:10:00,,0829.6,5.01,0.00,28.2,26.7,00.0,37.1,29.9,12.5,0000.5,0010.31,0006.47,0006.21
2022-09-12 09:11:00,,0829.6,5.01,0.00,28.2,26.7,00.0,37.1,30.0,12.6,0000.3,0009.86,0006.43,0006.21
2022-09-12 09:12:00,,0829.6,4.99,0.00,28.2,26.8,00.0,37.1,30.0,12.5,0000.4,0009.95,0006.48,0006.23
2022-09-12 09:13:00,,0829.6,5.01,0.00,28.3,26.8,00.0,37.1,30.0,12.6,0000.5,0009.99,0006.51,0006.26
2022-09-12 09:14:00,,0829.6,4.99,0.00,28.3,26.8,00.0,37.1,30.0,12.9,0000.5,0009.60,0006.52,0006.28
2022-09-12 09:15:00,,0829.6,5.00,0.00,28.3,26.7,00.0,37.1,30.0,13.0,0000.3,0009.61,0006.54,0006.30
2022-09-12 09:16:00,,0829.5,5.01,0.00,28.2,26.7,00.0,37.1,30.0,12.9,0000.3,0009.37,0006.57,0006.32
2022-09-12 09:17:00,,0829.5,5.00,0.00,28.2,26.7,00.0,37.0,30.0,12.9,0000.5,0009.13,0006.61,0006.36
2022-09-12 09:18:00,,0829.5,4.99,0.00,28.2,26.6,00.0,37.0,29.9,12.9,0000.5,0009.25,0006.66,0006.39
2022-09-12 09:19:00,,0829.5,5.01,0.00,28.2,26.6,00.0,37.0,29.9,12.9,0000.6,0009.40,0006.69,0006.42
2022-09-12 09:20:00,,0829.6,5.00,0.00,28.2,26.6,00.0,37.0,29.9,13.0,0000.7,0009.42,0006.72,0006.45
2022-09-12 09:21:00,,0829.6,5.00,0.00,28.2,26.6,00.0,37.0,29.9,13.2,0001.1,0009.67,0006.77,0006.50
2022-09-12 09:22:00,,0829.6,4.99,0.00,28.2,26.6,00.0,37.0,29.9,13.4,0001.2,0009.86,0006.82,0006.55
2022-09-12 09:23:00,,0829.5,5.01,0.00,28.2,26.7,00.0,37.0,30.0,13.5,0001.2,0009.88,0006.89,0006.62
2022-09-12 09:24:00,,0829.5,5.01,0.00,28.2,26.7,00.0,37.0,30.0,13.7,0001.2,0009.99,0006.96,0006.66
2022-09-12 09:25:00,,0829.5,4.98,0.00,28.2,26.6,00.0,37.0,29.9,14.0,0001.2,0009.99,0006.95,0006.65
2022-09-12 09:26:00,,0829.6,5.01,0.00,28.1,26.6,00.0,37.0,29.9,13.4,0001.2,0010.00,0006.96,0006.66
2022-09-12 09:27:00,,0829.6,5.00,0.00,28.1,26.5,00.0,37.0,29.8,13.3,0001.6,0010.11,0007.00,0006.67
2022-09-12 09:28:00,,0829.5,4.99,0.00,28.1,26.5,00.0,37.0,29.8,12.7,0002.4,0009.98,0006.97,0006.67
2022-09-12 09:29:00,,0829.6,5.01,0.00,28.1,26.5,00.0,37.0,29.8,13.1,0002.4,0009.88,0006.96,0006.70
2022-09-12 09:30:00,,0829.6,5.00,0.00,28.1,26.5,00.0,37.0,29.8,12.9,0002.8,0009.94,0006.98,0006.73
2022-09-12 09:31:00,,0829.5,5.00,0.00,28.1,26.6,00.0,37.0,29.9,12.6,0002.9,0010.00,0007.00,0006.75
2022-09-12 09:32:00,,0829.5,4.99,0.00,28.1,26.7,00.0,36.9,29.9,12.5,0002.9,0009.75,0006.99,0006.73
2022-09-12 09:33:00,,0829.5,5.01,0.00,28.1,26.7,00.0,36.9,30.0,13.1,0002.9,0009.83,0006.99,0006.70
2022-09-12 09:34:00,,0829.5,4.99,0.00,28.2,26.7,00.0,37.0,30.0,12.8,0002.8,0009.90,0006.96,0006.66
2022-09-12 09:35:00,,0829.6,4.99,0.00,28.2,26.7,00.0,37.0,30.0,12.9,0002.8,0009.89,0006.93,0006.64
2022-09-12 09:36:00,,0829.5,5.00,0.00,28.2,26.7,00.0,37.0,29.9,13.1,0003.0,0009.94,0006.98,0006.68
2022-09-12 09:37:00,,0829.5,5.00,0.00,28.1,26.7,00.0,37.0,29.9,12.9,0003.1,0009.88,0006.98,0006.71
2022-09-12 09:38:00,,0829.5,5.00,0.00,28.1,26.6,00.0,37.0,29.9,13.1,0003.2,0009.98,0006.99,0006.74
2022-09-12 09:39:00,,0829.5,5.00,0.00,28.2,26.7,00.0,36.9,29.9,13.2,0003.0,0010.12,0007.04,0006.77
2022-09-12 09:40:00,,0829.5,5.00,0.00,28.1,26.7,00.0,36.9,29.9,13.2,0003.1,0010.22,0007.10,0006.82
2022-09-12 09:41:00,,0829.5,5.01,0.00,28.2,26.7,00.0,37.0,29.9,13.1,0002.9,0010.08,0007.11,0006.84
2022-09-12 09:42:00,,0829.5,4.98,0.00,28.2,26.7,00.0,37.0,30.0,13.0,0002.5,0009.98,0007.14,0006.86
2022-09-12 09:43:00,,0829.5,5.01,0.00,28.2,26.7,00.0,36.9,30.0,13.1,0002.3,0010.06,0007.18,0006.88
2022-09-12 09:44:00,,0829.5,5.01,0.00,28.2,26.7,00.0,36.9,30.0,13.3,0002.0,0010.11,0007.17,0006.90
2022-09-12 09:45:00,,0829.5,4.99,0.00,28.2,26.7,00.0,36.9,30.0,13.4,0002.5,0010.34,0007.23,0006.92
2022-09-12 09:46:00,,0829.5,5.00,0.00,28.2,26.7,00.0,36.9,29.9,13.6,0002.8,0010.32,0007.27,0006.97
2022-09-12 09:47:00,,0829.5,5.00,0.00,28.2,26.6,00.0,36.9,29.9,13.7,0002.7,0010.45,0007.33,0007.02
2022-09-12 09:48:00,,0829.5,5.00,0.00,28.2,26.6,00.0,36.9,29.9,13.8,0002.8,0010.58,0007.42,0007.07
2022-09-12 09:49:00,,0829.5,4.98,0.00,28.2,26.7,00.0,36.9,29.9,14.1,0002.7,0010.43,0007.48,0007.13
2022-09-12 09:50:00,,0829.5,5.00,0.00,28.2,26.6,00.0,36.9,29.9,14.0,0002.4,0010.45,0007.52,0007.17
2022-09-12 09:51:00,,0829.5,5.01,0.00,28.1,26.5,00.0,36.9,29.9,13.5,0002.1,0010.57,0007.51,0007.13
2022-09-12 09:52:00,,0829.5,5.00,0.00,28.1,26.5,00.0,36.9,29.9,13.3,0001.6,0010.83,0007.51,0007.11
2022-09-12 09:53:00,,0829.5,5.01,0.00,28.1,26.5,00.0,36.9,29.8,13.1,0001.4,0010.87,0007.49,0007.10
2022-09-12 09:54:00,,0829.4,4.99,0.00,28.1,26.4,00.0,36.9,29.8,13.2,0001.4,0010.89,0007.48,0007.07
2022-09-12 09:55:00,,0829.5,5.00,0.00,28.1,26.5,00.0,36.9,29.8,12.9,0001.8,0010.83,0007.44,0007.04
2022-09-12 09:56:00,,0829.5,5.00,0.00,28.1,26.5,00.0,36.9,29.9,12.5,0001.3,0010.38,0007.34,0006.98
2022-09-12 09:57:00,,0829.5,5.01,0.00,28.1,26.6,00.0,36.9,29.9,12.5,0001.1,0010.24,0007.24,0006.91
2022-09-12 09:58:00,,0829.5,4.98,0.00,28.1,26.6,00.0,36.9,29.9,12.4,0001.4,0010.10,0007.16,0006.84
2022-09-12 09:59:00,,0829.5,5.00,0.00,28.1,26.6,00.0,36.9,29.9,12.3,0001.6,0010.03,0007.04,0006.75
